Location: Camerons Lookout
(40.9833°S, 175.9333°E)
Time: 02:25:29
(UTC+00:00)

Cosmos 1777 Rocket - Pass Details

Date: 14 January 2026
Orbit: 754 x 771 km, 74.0° (Epoch: 6 February)

Event Time Altitude Azimuth Distance (km) Brightness Sun altitude
Exits shadow 10:51:44 65° 2° (N) 853 3.9 -24.1°
Maximum altitude 10:52:31 81° 73° (ENE) 791 3.9 -24.1°
Drops below altitude 10° 10:57:51 10° 159° (SSE) 2,345 7.1 -24.5°
Sets 11:00:15 0° 159° (SSE) 3,281 8.0 -24.7°
